Regional Weather Roundup
Issued by NWS

Home | Current Version | Previous Version | Text Only | Print | Product List | Glossary Off
Versions: 1 2 3 4 5 6 7 8 9 10 11 12 13 14 15 16 17 18 19 20 21 22 23 24 25 26 27 28 29 30 31 32 33 34 35 36 37 38 39 40 41 42 43 44 45 46 47 48 49 50

341
ASUS43 KBIS 141402
RWRND

NORTH DAKOTA REGIONAL WEATHER ROUNDUP
NATIONAL WEATHER SERVICE BISMARCK ND
800 AM CST SUN FEB 14 2016

NOTE: "FAIR" INDICATES FEW OR NO CLOUDS BELOW 12,000 FEET WITH NO
SIGNIFICANT WEATHER AND/OR OBSTRUCTIONS TO VISIBILITY.


NDZ001>003-009>011-017-141500-
NORTHWEST NORTH DAKOTA

CITY           SKY/WX    TMP DP  RH WIND       PRES   REMARKS
WILLISTON      PTCLDY    20  18  92 SW6       29.74S WCI  12
MINOT          CLOUDY    27  21  78 W9        29.69F WCI  18
MINOT AFB      CLOUDY    26  25  99 CALM      29.69F
$$

NDZ018>021-031>035-040>046-141500-
SOUTHWEST NORTH DAKOTA

CITY           SKY/WX    TMP DP  RH WIND       PRES   REMARKS
BISMARCK       CLOUDY    29  25  85 CALM      29.75F
DICKINSON      CLOUDY    22  20  92 W10       29.70F WCI  11
GARRISON         N/A     28  25  88 NW12      29.70F WCI  18
HETTINGER ARPT CLOUDY    25  22  88 W8        29.74F WCI  16
$$

NDZ004>008-012>016-024-026-027-054-141500-
NORTHEAST NORTH DAKOTA

CITY           SKY/WX    TMP DP  RH WIND       PRES   REMARKS
GRAND FORKS    LGT SNOW  14   9  80 S21G29    29.84F WCI  -4
GRND FRKS AFB  LGT SNOW  13   9  83 S18       29.81F WCI  -4
DEVILS LAKE    FLURRIES  14  11  87 S12       29.71F WCI   0
$$

NDZ022-023-025-028>030-036>039-047>053-141500-
SOUTHEAST NORTH DAKOTA

CITY           SKY/WX    TMP DP  RH WIND       PRES   REMARKS
FARGO          LGT SNOW  14   9  80 S22G28    29.88F VSB 3/4 WCI  -4
JAMESTOWN      CLOUDY    14  11  87 S14       29.74F WCI  -1
$$





USA.gov is the U.S. government's official web portal to all federal, state and local government web resources and services.